Powrót do katalogu

KUIPER-00021

AktywnyŁącznośćLEO
NORAD 63736·PAYLOAD·🇺🇸 United States

Wystrzelony Apr 28, 2025 z Cape Canaveral Space Force Station

Loading…

Następne Przeloty (najbliższe 24 godziny)

TLE

ŚwieżeSource: CelesTrak SupGP

Epoka: Sep 15, 2026, 00:40 UTC

1 63736C 25088N   26258.02824074  .00002679  00000+0  35063-3 0  2589
2 63736  51.9011 345.8076 0000291  90.5812 208.1709 14.79931370    16

Śledź KUIPER-00021 w czasie rzeczywistym z AllMySat

Download on the App Store